Radiation Dose at Monitoring Post of Fukushima Daini Nuclear Power Station
Date,Time,MP-1(microSv/h),MP-2(microSv/h),MP-3(microSv/h),MP-4(microSv/h),MP-5(microSv/h),MP-6(microSv/h),MP-7(microSv/h),Wind Direction,Wind Velocity(m/s),Rain
2022/04/16,00:00,0.153,0.141,0.218,0.210,0.216,0.120,0.080,north-northwest,7.1,Yes
2022/04/16,00:10,0.152,0.141,0.218,0.209,0.218,0.120,0.080,north-northwest,8.0,Yes
2022/04/16,00:20,0.151,0.140,0.217,0.209,0.216,0.121,0.079,north-northwest,8.8,Yes
2022/04/16,00:30,0.152,0.141,0.218,0.209,0.216,0.121,0.078,north-northwest,8.7,Yes
2022/04/16,00:40,0.151,0.139,0.217,0.208,0.217,0.120,0.079,north-northwest,7.1,Yes
2022/04/16,00:50,0.151,0.141,0.219,0.211,0.218,0.121,0.079,north-northwest,8.3,Yes
2022/04/16,01:00,0.151,0.140,0.218,0.209,0.218,0.121,0.079,north-northwest,9.2,Yes
2022/04/16,01:10,0.151,0.140,0.219,0.210,0.217,0.121,0.081,north-northwest,9.3,Yes
2022/04/16,01:20,0.152,0.141,0.217,0.209,0.217,0.122,0.080,north-northwest,8.8,Yes
2022/04/16,01:30,0.152,0.141,0.218,0.210,0.219,0.121,0.080,north-northwest,9.3,Yes
2022/04/16,01:40,0.151,0.140,0.218,0.210,0.217,0.121,0.080,north-northwest,9.0,Yes
2022/04/16,01:50,0.151,0.140,0.217,0.210,0.216,0.120,0.079,north-northwest,8.7,Yes
2022/04/16,02:00,0.150,0.140,0.218,0.209,0.218,0.120,0.080,north-northwest,9.4,Yes
2022/04/16,02:10,0.150,0.140,0.218,0.210,0.217,0.121,0.080,north-northwest,8.5,Yes
2022/04/16,02:20,0.152,0.140,0.217,0.209,0.217,0.120,0.079,north-northwest,7.8,Yes
2022/04/16,02:30,0.152,0.139,0.218,0.210,0.219,0.121,0.079,north-northwest,9.4,Yes
2022/04/16,02:40,0.151,0.140,0.219,0.210,0.218,0.121,0.080,north-northwest,9.2,Yes
2022/04/16,02:50,0.153,0.142,0.218,0.210,0.219,0.121,0.080,north-northwest,10.0,Yes
2022/04/16,03:00,0.152,0.140,0.219,0.209,0.217,0.121,0.080,north-northwest,9.4,Yes
2022/04/16,03:10,0.153,0.141,0.218,0.211,0.219,0.121,0.080,north-northwest,9.2,Yes
2022/04/16,03:20,0.151,0.141,0.218,0.211,0.218,0.121,0.079,north-northwest,9.5,Yes
2022/04/16,03:30,0.152,0.141,0.218,0.210,0.217,0.120,0.079,north-northwest,9.9,Yes
2022/04/16,03:40,0.151,0.140,0.218,0.210,0.217,0.120,0.079,north-northwest,9.4,Yes
2022/04/16,03:50,0.152,0.139,0.216,0.210,0.217,0.120,0.078,north-northwest,9.4,Yes
2022/04/16,04:00,0.151,0.140,0.218,0.210,0.218,0.120,0.079,northwest,9.3,Yes
2022/04/16,04:10,0.151,0.139,0.218,0.210,0.217,0.120,0.078,north-northwest,8.5,Yes
2022/04/16,04:20,0.152,0.139,0.218,0.210,0.217,0.120,0.078,north-northwest,8.6,Yes
2022/04/16,04:30,0.152,0.140,0.217,0.209,0.218,0.119,0.078,north-northwest,8.6,Yes
2022/04/16,04:40,0.152,0.139,0.218,0.211,0.217,0.120,0.078,north-northwest,8.4,Yes
2022/04/16,04:50,0.151,0.139,0.217,0.210,0.218,0.120,0.078,north-northwest,9.2,Yes
2022/04/16,05:00,0.151,0.139,0.217,0.209,0.216,0.119,0.078,north-northwest,9.1,Yes
2022/04/16,05:10,0.151,0.139,0.217,0.210,0.217,0.120,0.078,north-northwest,8.5,Yes
2022/04/16,05:20,0.152,0.138,0.217,0.209,0.216,0.119,0.077,north-northwest,7.6,Yes
2022/04/16,05:30,0.151,0.138,0.217,0.210,0.216,0.119,0.077,north-northwest,7.5,Yes
2022/04/16,05:40,0.151,0.138,0.216,0.210,0.217,0.119,0.077,north-northwest,7.7,Yes
2022/04/16,05:50,0.151,0.138,0.217,0.210,0.215,0.120,0.077,north-northwest,7.9,Yes
2022/04/16,06:00,0.151,0.138,0.217,0.209,0.215,0.119,0.077,north-northwest,7.8,Yes
2022/04/16,06:10,0.153,0.137,0.217,0.209,0.218,0.119,0.078,north-northwest,8.1,Yes
2022/04/16,06:20,0.150,0.137,0.218,0.209,0.217,0.119,0.077,north-northwest,8.4,Yes
2022/04/16,06:30,0.151,0.139,0.218,0.210,0.215,0.118,0.077,north-northwest,8.5,Yes
2022/04/16,06:40,0.150,0.138,0.217,0.210,0.218,0.119,0.077,north-northwest,8.3,Yes
2022/04/16,06:50,0.151,0.138,0.216,0.210,0.217,0.119,0.077,north-northwest,8.5,Yes
2022/04/16,07:00,0.151,0.138,0.218,0.210,0.216,0.119,0.077,north-northwest,8.4,Yes
2022/04/16,07:10,0.151,0.139,0.218,0.210,0.216,0.118,0.077,north-northwest,8.8,Yes
2022/04/16,07:20,0.152,0.138,0.218,0.210,0.216,0.120,0.078,north-northwest,8.5,Yes
2022/04/16,07:30,0.152,0.139,0.218,0.210,0.216,0.120,0.079,northwest,7.6,Yes
2022/04/16,07:40,0.151,0.138,0.218,0.209,0.217,0.120,0.078,north-northwest,7.7,Yes
2022/04/16,07:50,0.152,0.139,0.218,0.209,0.217,0.120,0.079,north-northwest,8.9,Yes
2022/04/16,08:00,0.151,0.139,0.217,0.211,0.217,0.121,0.077,north-northwest,7.9,Yes
2022/04/16,08:10,0.151,0.138,0.218,0.211,0.219,0.119,0.078,north-northwest,7.4,Yes
2022/04/16,08:20,0.151,0.138,0.218,0.210,0.217,0.119,0.078,north-northwest,8.1,Yes
2022/04/16,08:30,0.151,0.138,0.217,0.210,0.216,0.119,0.077,north-northwest,9.7,Yes
2022/04/16,08:40,0.152,0.139,0.217,0.210,0.217,0.119,0.078,north,7.7,Yes
2022/04/16,08:50,0.152,0.138,0.216,0.210,0.217,0.119,0.078,north-northwest,8.1,Yes
2022/04/16,09:00,0.151,0.137,0.219,0.210,0.216,0.119,0.078,north-northwest,8.6,Yes
2022/04/16,09:10,0.152,0.138,0.217,0.211,0.217,0.119,0.077,north-northwest,9.2,Yes
2022/04/16,09:20,0.152,0.139,0.218,0.211,0.217,0.119,0.077,north-northwest,7.1,Yes
2022/04/16,09:30,0.151,0.138,0.218,0.210,0.217,0.120,0.077,north-northwest,9.3,Yes
2022/04/16,09:40,0.151,0.138,0.217,0.211,0.219,0.119,0.077,north,8.0,Yes
2022/04/16,09:50,0.151,0.137,0.217,0.210,0.217,0.120,0.077,north-northwest,8.2,Yes
2022/04/16,10:00,0.152,0.138,0.218,0.210,0.218,0.118,0.076,north,7.9,Yes
2022/04/16,10:10,0.151,0.138,0.218,0.210,0.217,0.119,0.077,north,8.1,Yes
2022/04/16,10:20,0.151,0.139,0.218,0.210,0.217,0.119,0.077,north-northwest,8.1,Yes
2022/04/16,10:30,0.151,0.138,0.218,0.212,0.218,0.119,0.077,north,6.1,Yes
2022/04/16,10:40,0.152,0.137,0.219,0.211,0.218,0.119,0.077,north,8.1,Yes
2022/04/16,10:50,0.151,0.137,0.218,0.211,0.218,0.119,0.077,north,5.5,No
2022/04/16,11:00,0.152,0.138,0.219,0.211,0.217,0.119,0.077,north-northeast,7.4,No
2022/04/16,11:10,0.152,0.138,0.218,0.210,0.218,0.119,0.077,north-northeast,7.2,No
2022/04/16,11:20,0.152,0.137,0.219,0.212,0.218,0.119,0.078,north-northeast,7.0,No
2022/04/16,11:30,0.151,0.139,0.219,0.212,0.217,0.119,0.077,north-northeast,5.5,No
2022/04/16,11:40,0.151,0.138,0.219,0.211,0.218,0.120,0.077,north-northeast,6.0,No
2022/04/16,11:50,0.151,0.138,0.219,0.212,0.216,0.120,0.076,north-northeast,6.1,No
2022/04/16,12:00,0.151,0.138,0.219,0.211,0.218,0.119,0.076,north-northeast,7.9,No
2022/04/16,12:10,0.153,0.138,0.218,0.211,0.219,0.119,0.077,north,7.9,No
2022/04/16,12:20,0.152,0.138,0.219,0.212,0.218,0.120,0.077,north-northeast,7.4,No
2022/04/16,12:30,0.152,0.139,0.219,0.213,0.218,0.120,0.076,north-northeast,7.7,No
2022/04/16,12:40,0.152,0.139,0.221,0.211,0.217,0.120,0.076,northeast,6.1,No
2022/04/16,12:50,0.152,0.139,0.218,0.212,0.218,0.119,0.076,north-northeast,6.3,No
2022/04/16,13:00,0.152,0.138,0.219,0.212,0.219,0.120,0.077,north-northeast,6.6,No
2022/04/16,13:10,0.152,0.139,0.219,0.212,0.218,0.119,0.077,north-northeast,6.2,No
2022/04/16,13:20,0.152,0.138,0.220,0.211,0.218,0.119,0.077,northeast,4.6,No
2022/04/16,13:30,0.152,0.138,0.220,0.213,0.218,0.119,0.077,northeast,5.4,No
2022/04/16,13:40,0.152,0.139,0.218,0.211,0.218,0.119,0.078,north-northeast,4.4,No
2022/04/16,13:50,0.152,0.138,0.219,0.212,0.218,0.119,0.077,northeast,4.1,No
2022/04/16,14:00,0.152,0.138,0.219,0.211,0.217,0.119,0.077,north,3.7,No
2022/04/16,14:10,0.152,0.139,0.218,0.210,0.219,0.119,0.076,northeast,5.2,No
2022/04/16,14:20,0.151,0.137,0.219,0.212,0.217,0.119,0.077,north-northeast,5.5,No
2022/04/16,14:30,0.152,0.138,0.219,0.212,0.219,0.119,0.077,northeast,4.7,No
2022/04/16,14:40,0.152,0.138,0.219,0.211,0.218,0.119,0.077,north-northeast,4.0,No
2022/04/16,14:50,0.152,0.138,0.220,0.213,0.217,0.120,0.077,north-northeast,4.1,No
2022/04/16,15:00,0.152,0.137,0.219,0.213,0.220,0.120,0.077,north-northeast,4.1,No
2022/04/16,15:10,0.152,0.138,0.219,0.213,0.217,0.120,0.076,north-northeast,5.2,No
2022/04/16,15:20,0.151,0.138,0.220,0.212,0.219,0.119,0.076,north-northeast,4.9,No
2022/04/16,15:30,0.153,0.138,0.219,0.211,0.218,0.120,0.077,north,3.7,No
2022/04/16,15:40,0.151,0.139,0.220,0.213,0.218,0.119,0.076,north-northeast,3.8,No
2022/04/16,15:50,0.151,0.138,0.220,0.212,0.219,0.120,0.077,north-northeast,3.3,No
2022/04/16,16:00,0.153,0.138,0.220,0.212,0.218,0.119,0.077,northeast,3.8,No
2022/04/16,16:10,0.153,0.138,0.219,0.212,0.219,0.120,0.076,northeast,3.5,No
2022/04/16,16:20,0.152,0.138,0.220,0.212,0.219,0.119,0.077,northeast,3.8,No
2022/04/16,16:30,0.151,0.138,0.220,0.212,0.217,0.120,0.077,northeast,3.5,No
2022/04/16,16:40,0.152,0.138,0.221,0.212,0.220,0.119,0.076,northeast,4.1,No
2022/04/16,16:50,0.152,0.138,0.219,0.212,0.217,0.120,0.077,north-northeast,4.3,No
2022/04/16,17:00,0.152,0.139,0.220,0.213,0.216,0.120,0.077,north-northeast,4.1,No
2022/04/16,17:10,0.153,0.138,0.221,0.214,0.219,0.120,0.076,north,3.3,No
2022/04/16,17:20,0.153,0.139,0.220,0.214,0.218,0.120,0.077,north-northwest,3.0,No
2022/04/16,17:30,0.151,0.139,0.219,0.213,0.218,0.120,0.077,north,3.5,No
2022/04/16,17:40,0.152,0.139,0.219,0.212,0.219,0.120,0.077,north-northwest,2.4,No
2022/04/16,17:50,0.152,0.139,0.220,0.213,0.218,0.120,0.077,north-northeast,2.4,No
2022/04/16,18:00,0.151,0.138,0.221,0.213,0.218,0.120,0.076,north,3.3,No
2022/04/16,18:10,0.151,0.138,0.219,0.213,0.218,0.119,0.077,north,3.0,No
2022/04/16,18:20,0.153,0.139,0.220,0.213,0.218,0.120,0.077,north,2.7,No
2022/04/16,18:30,0.153,0.139,0.220,0.212,0.218,0.120,0.076,north,3.2,No
2022/04/16,18:40,0.152,0.139,0.220,0.212,0.218,0.120,0.077,north-northwest,3.3,No
2022/04/16,18:50,0.152,0.138,0.220,0.213,0.218,0.119,0.076,north-northwest,2.2,No
2022/04/16,19:00,0.152,0.139,0.220,0.213,0.218,0.120,0.077,-,CALM,No
2022/04/16,19:10,0.152,0.138,0.221,0.212,0.219,0.120,0.077,northwest,1.6,No
2022/04/16,19:20,0.152,0.138,0.219,0.212,0.218,0.120,0.077,west-southwest,0.8,No
2022/04/16,19:30,0.153,0.139,0.220,0.213,0.217,0.120,0.077,west-northwest,2.7,No
2022/04/16,19:40,0.153,0.139,0.220,0.214,0.218,0.121,0.078,northwest,2.5,No
2022/04/16,19:50,0.153,0.138,0.220,0.213,0.219,0.120,0.077,northwest,3.5,No
2022/04/16,20:00,0.152,0.138,0.220,0.214,0.218,0.120,0.077,north,3.5,No
2022/04/16,20:10,0.152,0.138,0.221,0.213,0.218,0.120,0.076,north,3.8,No
2022/04/16,20:20,0.152,0.139,0.220,0.213,0.219,0.120,0.077,north-northeast,4.1,No
2022/04/16,20:30,0.152,0.139,0.220,0.214,0.219,0.120,0.077,north-northeast,3.5,No
2022/04/16,20:40,0.152,0.138,0.220,0.213,0.217,0.121,0.078,north-northeast,1.8,No
2022/04/16,20:50,0.152,0.139,0.221,0.213,0.218,0.120,0.077,north,3.3,No
2022/04/16,21:00,0.152,0.139,0.220,0.213,0.218,0.121,0.077,north-northwest,3.3,No
2022/04/16,21:10,0.152,0.138,0.220,0.213,0.219,0.120,0.078,north-northwest,3.8,No
2022/04/16,21:20,0.153,0.138,0.220,0.212,0.217,0.121,0.077,north,3.3,No
2022/04/16,21:30,0.153,0.139,0.220,0.212,0.218,0.120,0.077,north-northeast,0.5,No
2022/04/16,21:40,0.153,0.138,0.220,0.212,0.219,0.120,0.077,northeast,1.6,No
2022/04/16,21:50,0.153,0.138,0.220,0.213,0.218,0.120,0.077,north-northwest,3.7,No
2022/04/16,22:00,0.153,0.138,0.220,0.213,0.218,0.120,0.077,north-northwest,2.5,No
2022/04/16,22:10,0.153,0.138,0.220,0.214,0.218,0.121,0.077,north-northeast,1.6,No
2022/04/16,22:20,0.153,0.139,0.219,0.213,0.217,0.121,0.076,north,1.3,No
2022/04/16,22:30,0.153,0.139,0.221,0.212,0.218,0.119,0.077,north-northeast,1.0,No
2022/04/16,22:40,0.152,0.138,0.219,0.213,0.219,0.120,0.077,north-northeast,1.3,No
2022/04/16,22:50,0.153,0.138,0.219,0.212,0.218,0.121,0.078,north-northeast,1.0,No
2022/04/16,23:00,0.153,0.139,0.220,0.213,0.219,0.120,0.077,north,0.7,No
2022/04/16,23:10,0.152,0.138,0.221,0.213,0.218,0.120,0.077,north,0.8,No
2022/04/16,23:20,0.153,0.138,0.220,0.213,0.218,0.120,0.077,north,1.0,No
2022/04/16,23:30,0.153,0.138,0.219,0.214,0.218,0.121,0.077,-,CALM,No
2022/04/16,23:40,0.153,0.138,0.220,0.213,0.218,0.120,0.077,-,CALM,No
2022/04/16,23:50,0.153,0.139,0.221,0.214,0.218,0.121,0.077,northeast,0.5,No
